Wind_Speed
23 23 24 23 22 22 21 21 23 24 25 26 28 30 30 31 32 34 34 35 34 35 34 35 34 35 35 33 32 31 30 29 28 27 26 28 28 30 31 32 33 35 36
26 26 25 24 24 24 24 24 26 27 29 30 31 32 33 34 35 35 36 36 36 36 36 37 36 36 35 33 32 32 31 29 28 28 28 28 29 30 31 32 34 36 38
27 26 27 28 27 27 27 28 29 31 32 33 34 35 36 37 37 38 38 39 39 39 39 39 38 37 36 35 33 33 33 32 32 31 32 32 32 33 34 35 38 40 41
29 30 30 29 30 31 30 31 33 34 35 36 37 37 38 39 39 40 40 41 41 42 41 41 40 39 38 37 35 35 35 35 35 36 36 36 37 38 39 41 43 45 46
30 31 32 33 33 34 34 34 36 36 37 37 38 38 39 40 41 42 43 43 44 43 43 43 42 41 40 39 38 38 38 38 39 39 40 41 42 44 45 47 49 51 53
31 33 34 35 36 36 37 37 37 37 37 38 38 39 41 42 43 44 45 45 45 45 44 45 44 43 42 42 42 42 42 43 43 44 45 46 48 49 50 52 53 54 56
33 34 35 36 37 37 37 37 37 37 37 37 38 40 42 44 45 46 46 46 46 46 46 46 46 46 45 46 46 46 46 47 48 49 49 50 52 53 54 56 57 58 59
36 36 36 36 36 36 35 36 36 36 36 37 39 41 43 44 45 46 47 47 47 47 48 48 48 48 49 49 49 50 50 51 52 52 53 54 55 56 57 59 60 61 62
38 36 35 33 33 33 34 35 35 36 37 38 40 41 43 45 46 47 48 48 49 50 50 50 51 52 52 53 53 53 54 54 55 55 56 56 57 58 59 61 62 63 63
34 33 32 31 31 32 33 34 35 36 37 39 41 42 44 45 47 48 49 51 51 52 52 53 54 55 55 56 57 57 57 58 58 58 58 58 59 60 60 61 62 63 63
28 29 29 30 30 31 33 34 35 37 38 40 42 44 45 47 48 50 51 52 53 54 55 56 58 59 59 60 60 60 60 59 59 59 59 59 59 59 60 60 61 61 61
26 28 29 30 31 32 33 35 36 38 40 42 44 45 47 48 50 51 53 54 55 57 58 59 60 61 61 61 60 61 61 61 60 60 59 59 58 58 58 57 58 58 58
26 28 29 31 32 33 35 36 38 39 41 43 45 47 48 50 51 53 55 56 58 59 60 60 60 61 61 61 61 62 61 61 60 59 58 57 56 55 55 55 55 55 55
27 29 31 33 34 36 37 39 41 42 44 46 48 49 50 51 53 55 56 57 59 60 60 60 61 61 61 61 61 60 59 58 57 56 55 54 53 52 52 52 52 53 53
29 32 34 36 38 39 41 43 45 46 47 49 50 51 52 54 55 56 57 58 59 59 60 60 60 60 60 59 58 58 57 55 54 53 52 51 50 49 49 49 49 50 50
33 35 37 39 41 42 43 45 46 47 47 48 49 50 52 54 55 56 57 58 58 59 59 58 58 58 57 57 56 54 53 52 51 50 49 48 47 47 47 47 47 46 45
36 37 39 41 41 42 43 44 45 46 47 48 50 50 52 53 53 54 55 56 56 56 56 56 56 55 54 53 52 51 50 50 49 47 47 46 46 45 44 43 42 40 38
36 36 37 38 39 40 42 43 45 46 48 49 50 51 51 52 53 53 54 54 54 54 54 53 53 52 51 51 50 49 48 46 46 45 44 43 42 41 39 38 35 33 31
35 35 37 38 38 41 42 44 46 47 47 48 49 49 50 51 51 52 51 51 51 51 51 51 50 49 49 48 47 45 44 43 42 41 39 38 37 35 32 29 27 25 25
33 35 36 38 40 41 42 43 44 44 45 46 47 48 48 48 48 48 49 49 49 49 48 48 47 46 45 43 42 40 39 37 36 34 32 30 28 26 23 21 19 19 18
33 34 36 37 38 39 40 41 42 43 44 44 45 45 45 45 46 46 47 47 46 45 44 43 42 41 39 37 36 35 33 30 28 25 23 20 18 16 15 14 13 13 14
32 33 34 35 36 37 38 39 40 40 40 41 42 43 43 44 45 44 44 42 41 40 38 37 35 34 32 30 29 27 24 22 19 16 13 11 10 9 9 9 9 10 11
30 31 32 33 34 35 35 36 36 37 38 39 40 41 42 42 41 40 38 35 34 32 30 29 27 26 24 22 19 17 15 13 10 8 6 5 4 4 5 6 8 9 11
28 29 29 30 30 31 32 33 34 34 36 37 38 37 37 36 34 31 29 27 26 24 23 21 20 19 16 14 11 9 7 6 4 2 2 2 3 4 4 6 8 10 11
25 26 26 27 28 28 30 30 31 32 33 33 33 33 31 29 26 24 22 20 19 18 17 16 14 12 10 8 6 4 4 3 4 4 4 4 5 6 7 8 10 11 12
22 23 24 25 26 26 27 28 28 29 30 30 30 28 25 22 19 17 16 16 15 14 13 12 10 9 8 7 6 6 6 6 6 7 7 8 9 9 10 10 11 11 13
Wind_Direction
240 241 248 252 257 263 271 276 281 286 288 290 292 293 295 297 300 302 304 307 310 314 316 319 319 320 321 320 318 318 318 316 310 305 301 297 293 291 290 287 282 282 283
239 243 248 255 258 263 268 274 278 282 284 284 285 286 289 291 294 297 299 302 306 309 311 312 314 315 316 317 315 314 314 315 313 309 307 304 301 297 295 292 290 289 287
239 245 250 253 259 263 266 271 275 278 280 280 281 282 283 286 288 291 294 297 301 303 305 307 309 309 310 311 311 311 311 311 310 309 306 305 303 299 296 294 293 291 289
244 248 253 257 263 266 268 271 273 275 276 277 278 278 280 282 284 286 289 293 296 298 300 302 304 304 304 306 306 307 306 306 306 305 304 302 300 298 295 293 291 289 288
250 252 255 259 263 266 269 271 273 274 275 275 274 274 276 278 281 283 286 290 293 294 296 298 299 300 301 302 302 302 303 303 302 301 300 299 298 296 295 293 292 291 290
255 257 259 261 263 266 268 270 270 271 272 272 271 272 275 277 279 282 285 288 290 291 293 295 296 297 299 299 299 299 300 300 299 299 298 297 296 295 294 293 291 289 288
261 262 263 263 264 265 267 269 269 270 270 269 270 272 274 277 279 281 284 286 287 289 291 293 294 295 296 296 297 297 298 298 298 298 297 296 295 294 293 291 290 288 287
265 266 266 265 265 266 266 266 267 268 268 269 270 272 274 276 279 281 283 285 286 288 289 290 291 292 293 294 295 295 296 296 296 297 296 295 294 293 292 290 288 287 286
265 266 266 265 265 265 265 265 266 267 267 267 269 271 273 275 278 280 283 284 286 287 287 288 290 291 292 293 294 294 295 296 296 296 295 293 292 291 290 288 287 287 286
262 263 263 263 263 263 264 265 265 266 267 268 270 271 273 275 277 280 282 283 285 286 287 288 290 291 292 293 293 294 295 295 295 294 293 292 291 290 289 288 288 287 287
260 261 261 263 263 264 264 265 266 267 268 269 271 272 274 276 277 279 280 282 284 285 287 289 289 290 291 292 293 294 295 294 294 294 293 292 290 290 289 288 288 288 288
258 260 262 263 264 264 265 266 267 268 270 271 273 273 274 275 277 278 280 282 283 285 287 288 289 290 291 292 293 294 294 294 294 293 292 292 291 290 290 289 289 289 289
258 261 264 265 266 266 267 268 269 270 272 273 274 275 275 276 278 280 282 283 284 286 287 289 290 291 292 293 293 293 294 294 294 293 293 293 292 292 291 291 290 291 291
261 264 267 268 268 269 269 270 271 271 272 273 274 275 277 279 280 282 283 284 285 287 289 290 291 291 292 293 293 293 293 294 294 294 293 293 293 293 292 292 292 292 292
269 269 270 270 270 271 271 272 273 274 275 276 276 278 280 282 282 284 285 286 288 289 290 290 291 291 292 292 293 293 293 293 294 294 293 293 293 293 293 293 293 294 294
271 271 271 271 272 272 273 275 275 277 279 279 280 281 283 284 285 286 288 289 290 290 290 290 291 292 292 292 293 293 293 293 293 293 293 293 293 293 294 294 294 295 296
273 274 274 272 273 275 277 277 278 280 281 283 284 286 288 289 290 290 291 291 291 291 291 292 292 293 293 293 293 293 293 293 293 293 293 293 293 294 294 295 296 297 297
278 278 276 277 279 281 282 282 284 286 287 289 290 290 291 291 292 292 292 292 292 293 293 293 294 294 294 294 293 293 293 293 292 292 292 293 293 294 294 295 296 298 299
279 279 279 280 283 284 286 289 290 290 291 292 292 293 293 293 294 294 294 294 294 295 295 295 295 295 294 294 294 293 293 292 292 292 292 292 292 293 294 295 297 300 302
279 280 281 283 286 289 292 293 294 294 295 295 296 296 296 296 296 296 296 296 296 296 296 296 296 296 296 296 295 295 295 294 293 293 292 292 291 292 293 296 299 303 308
283 286 289 291 292 294 295 296 297 298 298 299 299 299 299 299 299 299 299 298 298 298 298 298 298 298 297 297 296 296 295 294 293 293 292 291 290 291 295 300 305 312 318
289 291 293 294 296 297 298 299 300 301 302 302 302 303 302 302 302 302 302 302 302 301 302 301 301 300 299 298 297 297 296 296 296 294 292 290 291 295 302 311 319 327 332
293 294 296 298 299 300 301 303 304 306 306 306 307 306 306 306 306 306 306 305 305 306 306 306 306 306 305 303 301 301 301 300 299 298 296 299 309 321 331 339 343 348 352
296 298 300 301 302 304 306 307 309 310 311 311 311 311 311 311 311 311 310 310 311 312 313 314 315 315 314 313 313 313 314 317 326 344 6 14 17 20 17 13 12 11 10
299 301 303 305 307 308 310 312 314 315 316 317 318 318 318 318 317 317 317 318 319 321 323 325 328 332 336 341 351 1 17 45 62 61 59 60 59 51 42 36 29 25 23
303 306 308 310 311 313 315 317 319 320 322 324 324 325 325 326 327 327 327 330 333 336 339 344 351 360 11 24 39 52 65 73 72 70 71 71 68 61 56 49 43 36 30
Height
5863 5865 5864 5864 5867 5870 5871 5872 5872 5872 5872 5872 5871 5870 5869 5868 5867 5865 5864 5863 5861 5859 5857 5855 5853 5850 5847 5844 5840 5838 5835 5832 5830 5829 5829 5828 5827 5826 5825 5823 5822 5822 5821
5859 5860 5860 5859 5862 5865 5867 5868 5868 5868 5867 5867 5866 5865 5864 5863 5862 5860 5859 5857 5855 5854 5852 5850 5847 5845 5842 5839 5836 5833 5830 5828 5826 5824 5823 5822 5821 5820 5818 5816 5815 5813 5811
5855 5855 5856 5857 5858 5860 5861 5863 5863 5862 5861 5860 5859 5858 5857 5856 5856 5854 5853 5851 5849 5848 5846 5844 5841 5839 5836 5833 5831 5828 5825 5823 5820 5818 5816 5814 5813 5812 5810 5808 5807 5804 5802
5851 5852 5852 5851 5852 5854 5855 5856 5856 5856 5855 5854 5853 5852 5850 5849 5848 5847 5846 5844 5843 5841 5839 5837 5834 5832 5829 5826 5824 5821 5819 5816 5813 5811 5808 5806 5804 5802 5801 5798 5795 5793 5790
5846 5847 5847 5847 5847 5847 5848 5849 5849 5848 5847 5846 5845 5844 5843 5842 5840 5839 5838 5837 5835 5833 5831 5829 5826 5824 5821 5819 5816 5813 5811 5808 5805 5802 5799 5796 5794 5791 5788 5786 5783 5779 5775
5840 5840 5841 5841 5841 5841 5841 5841 5841 5840 5839 5838 5837 5836 5835 5834 5832 5830 5829 5828 5826 5824 5822 5820 5817 5815 5812 5810 5807 5804 5801 5798 5795 5792 5788 5785 5781 5778 5775 5772 5769 5765 5761
5832 5833 5834 5834 5833 5833 5833 5833 5832 5832 5831 5830 5829 5828 5827 5825 5824 5822 5820 5819 5817 5815 5813 5810 5808 5805 5803 5800 5797 5794 5791 5787 5784 5780 5776 5772 5768 5764 5760 5756 5753 5749 5746
5824 5824 5825 5825 5825 5825 5825 5825 5824 5824 5823 5822 5821 5820 5819 5817 5815 5812 5811 5809 5806 5804 5803 5800 5798 5795 5792 5789 5786 5783 5779 5775 5771 5767 5763 5758 5754 5749 5745 5741 5737 5733 5729
5815 5815 5816 5816 5816 5816 5816 5816 5816 5815 5815 5814 5813 5812 5810 5808 5806 5804 5802 5799 5797 5795 5792 5790 5787 5784 5781 5777 5774 5770 5766 5762 5757 5753 5749 5744 5739 5734 5729 5724 5719 5716 5712
5806 5807 5807 5807 5808 5808 5808 5808 5808 5807 5806 5806 5805 5803 5801 5799 5797 5795 5792 5789 5787 5784 5781 5778 5775 5772 5768 5764 5760 5756 5752 5747 5743 5738 5733 5728 5723 5718 5713 5708 5702 5697 5693
5798 5798 5799 5799 5800 5800 5800 5799 5799 5798 5797 5796 5795 5794 5792 5790 5787 5785 5782 5779 5775 5772 5769 5766 5762 5758 5754 5750 5745 5741 5737 5732 5727 5722 5717 5713 5707 5702 5697 5691 5686 5680 5675
5790 5791 5791 5792 5792 5792 5792 5791 5790 5789 5788 5787 5785 5783 5781 5779 5776 5773 5770 5767 5763 5760 5756 5752 5748 5744 5739 5735 5730 5725 5721 5716 5712 5707 5702 5697 5692 5686 5681 5676 5670 5665 5659
5783 5784 5784 5784 5784 5784 5783 5782 5782 5780 5779 5777 5775 5772 5770 5767 5764 5761 5758 5754 5750 5746 5742 5737 5733 5728 5724 5720 5715 5710 5705 5700 5695 5691 5686 5681 5676 5671 5666 5661 5656 5651 5645
5776 5777 5776 5776 5776 5775 5774 5773 5771 5770 5768 5766 5763 5760 5758 5755 5752 5748 5744 5740 5736 5732 5727 5723 5718 5713 5709 5704 5699 5694 5690 5685 5680 5675 5671 5666 5662 5657 5652 5647 5642 5637 5632
5769 5769 5769 5768 5767 5766 5764 5763 5761 5759 5756 5754 5751 5748 5745 5741 5738 5734 5730 5726 5721 5717 5712 5708 5703 5698 5693 5688 5683 5679 5675 5670 5666 5661 5656 5652 5648 5644 5639 5634 5629 5624 5618
5761 5761 5760 5759 5757 5755 5754 5752 5749 5746 5744 5741 5738 5735 5732 5728 5724 5720 5715 5711 5706 5702 5697 5692 5687 5682 5677 5673 5668 5664 5660 5655 5651 5647 5643 5639 5635 5631 5626 5621 5616 5611 5606
5753 5752 5750 5748 5747 5745 5742 5740 5737 5734 5732 5729 5725 5722 5718 5714 5710 5705 5701 5696 5691 5686 5681 5677 5672 5668 5662 5657 5653 5649 5645 5641 5637 5634 5630 5626 5622 5619 5614 5610 5605 5601 5596
5743 5742 5740 5738 5736 5734 5732 5729 5726 5723 5720 5716 5713 5709 5704 5700 5695 5691 5686 5681 5676 5671 5667 5662 5657 5653 5648 5643 5639 5635 5631 5627 5624 5621 5617 5614 5610 5607 5603 5599 5596 5592 5588
5735 5733 5731 5729 5727 5724 5721 5718 5715 5712 5708 5705 5701 5696 5691 5686 5681 5676 5671 5666 5662 5657 5652 5647 5643 5639 5634 5629 5625 5621 5618 5614 5611 5608 5605 5602 5599 5596 5593 5591 5588 5585 5582
5726 5724 5722 5720 5717 5714 5711 5708 5705 5701 5697 5692 5688 5683 5678 5673 5668 5663 5658 5653 5648 5643 5638 5633 5629 5624 5620 5616 5612 5608 5605 5602 5599 5597 5594 5593 5590 5588 5586 5585 5583 5581 5578
5718 5716 5714 5711 5708 5705 5702 5698 5695 5690 5685 5681 5676 5671 5666 5661 5656 5650 5645 5640 5634 5630 5625 5621 5616 5612 5608 5604 5601 5598 5595 5592 5590 5588 5587 5585 5584 5583 5582 5581 5579 5577 5575
5711 5709 5706 5703 5700 5697 5693 5689 5685 5680 5675 5670 5665 5660 5654 5649 5643 5637 5632 5627 5622 5618 5613 5609 5605 5601 5598 5594 5591 5589 5587 5585 5584 5583 5582 5581 5580 5580 5579 5578 5577 5575 5573
5704 5701 5699 5696 5692 5689 5685 5681 5676 5671 5666 5661 5655 5649 5643 5637 5631 5626 5621 5616 5611 5608 5604 5600 5596 5593 5590 5587 5585 5583 5581 5580 5580 5579 5579 5579 5579 5578 5578 5577 5576 5574 5572
5697 5695 5692 5689 5685 5682 5677 5673 5668 5663 5658 5652 5646 5640 5634 5628 5622 5617 5612 5608 5604 5601 5597 5594 5591 5588 5585 5583 5581 5580 5579 5579 5579 5578 5579 5579 5578 5578 5577 5577 5575 5573 5571
5692 5689 5686 5683 5679 5675 5671 5667 5662 5656 5650 5644 5638 5632 5626 5621 5616 5611 5607 5603 5600 5597 5594 5591 5588 5586 5584 5582 5580 5579 5579 5579 5579 5579 5579 5579 5579 5579 5578 5577 5575 5574 5572
5686 5683 5680 5677 5673 5670 5665 5661 5656 5650 5644 5638 5632 5626 5621 5616 5612 5608 5604 5601 5598 5595 5593 5590 5588 5586 5584 5582 5582 5581 5581 5581 5581 5581 5581 5581 5580 5580 5579 5578 5577 5575 5573